Wind_Speed
25 25 25 26 26 26 27 27 28 29 30 31 31 32 32 33 33 33 34 34 35 35 36 37 37 37 38 39 39 40 40 41 42 43 44 44 45 45 46 46 47 47 47
26 26 26 27 27 27 28 29 30 31 31 32 32 33 33 33 33 34 34 35 35 36 36 37 37 38 39 39 40 41 41 42 43 44 44 45 46 47 47 48 48 49 49
27 28 28 28 28 29 30 30 31 32 32 33 33 33 33 34 34 35 35 36 36 36 37 37 38 39 40 40 41 42 42 43 44 44 45 45 46 47 47 48 48 49 49
29 29 29 29 30 31 31 32 32 33 33 34 34 34 35 35 36 37 37 38 38 38 38 39 39 40 40 41 42 42 43 44 45 45 46 46 46 47 48 48 49 49 50
30 30 30 31 31 32 33 33 33 34 34 35 36 36 36 37 38 38 39 39 39 40 40 40 41 41 42 42 43 44 44 45 46 46 47 47 48 48 49 49 50 50 51
31 31 32 32 33 33 34 34 35 35 35 36 37 37 38 38 39 40 40 40 41 42 42 42 43 43 44 44 45 45 46 46 47 47 48 48 49 50 50 51 51 52 53
32 32 32 33 33 34 35 35 36 36 36 37 37 38 39 40 40 41 42 42 43 43 44 44 45 45 46 46 47 47 48 48 49 49 50 50 51 52 52 53 53 54 55
33 33 33 34 34 35 36 37 37 37 38 38 39 39 40 41 42 42 43 44 45 45 46 46 47 48 48 49 49 49 50 50 51 52 52 53 54 54 55 55 56 56 57
34 34 35 35 36 37 37 38 38 39 39 40 40 41 41 41 42 43 44 45 46 47 48 48 49 50 50 51 51 52 53 54 54 55 55 56 57 57 58 58 59 59 59
35 35 36 36 37 38 39 39 40 40 41 41 42 42 43 43 43 42 44 46 47 48 49 50 51 52 52 53 54 54 55 56 57 57 58 59 59 60 60 61 61 62 62
35 36 36 37 38 39 40 40 41 41 42 43 43 43 44 44 45 44 44 45 46 48 49 51 52 53 54 55 56 57 58 59 59 60 61 61 62 63 63 64 64 64 65
36 37 38 38 39 40 40 41 41 42 43 44 44 45 45 46 46 46 46 46 46 47 49 50 52 54 55 56 57 58 59 60 61 62 63 63 64 65 66 66 67 67 67
37 38 38 39 40 40 41 42 43 44 44 45 45 46 46 47 48 48 48 48 48 48 49 51 53 54 55 56 57 58 59 61 62 63 64 65 66 67 67 68 69 69 70
38 38 39 40 41 42 43 44 45 45 46 46 46 47 48 48 49 49 50 51 51 50 50 51 53 54 55 57 58 59 60 61 63 64 65 66 68 68 69 70 70 71 71
38 39 40 42 43 43 44 45 46 46 47 47 48 48 48 49 50 51 52 52 53 52 51 52 54 55 56 57 59 60 62 63 64 66 68 69 70 71 72 72 72 73 73
39 41 42 43 43 44 45 46 47 47 48 48 48 49 49 50 51 52 52 53 54 55 54 54 56 57 59 60 62 63 65 66 67 69 70 71 72 73 74 75 76 76 77
40 42 43 44 44 45 46 47 47 48 48 48 49 50 51 51 52 53 53 54 55 56 57 57 59 61 62 64 65 67 68 70 71 72 73 74 75 76 76 77 78 78 79
41 43 44 45 45 46 47 48 48 48 49 49 50 51 52 53 53 54 55 56 57 58 60 60 61 63 65 67 69 70 72 74 75 76 77 78 79 79 79 79 79 78 78
42 44 45 45 46 47 48 48 49 49 50 51 51 52 53 54 55 55 56 57 59 60 62 64 64 67 69 71 73 74 75 77 78 79 80 80 80 79 79 78 77 75 75
44 45 46 46 47 47 48 49 49 50 51 52 53 53 54 55 56 57 58 60 61 63 65 67 69 70 72 74 76 78 78 79 79 80 79 78 76 75 73 72 71 70 69
45 46 46 47 47 48 49 50 50 51 52 53 54 55 56 56 57 59 60 62 64 66 69 71 73 74 75 77 79 80 80 78 77 76 74 71 69 67 65 64 62 61 59
45 46 46 47 48 49 50 51 52 52 53 54 55 56 57 58 59 61 63 65 68 70 73 75 76 77 78 79 80 79 78 76 72 69 66 62 61 59 57 56 54 52 50
46 46 47 47 48 49 51 52 52 53 54 55 56 57 58 59 61 64 66 68 71 74 77 78 78 78 78 79 78 76 74 70 65 61 59 55 53 51 50 48 46 45 43
46 46 47 48 49 50 52 52 53 54 55 56 58 59 60 62 65 67 69 71 74 75 76 77 78 78 78 78 75 72 68 64 59 55 53 49 46 45 43 41 40 38 36
46 47 48 49 50 51 52 53 54 56 57 58 59 61 63 66 68 71 73 74 75 75 76 77 78 77 76 73 70 67 63 58 53 48 47 44 41 39 37 35 33 32 30
46 47 48 49 51 52 53 55 57 58 59 60 62 64 67 69 71 73 75 75 75 75 75 76 76 74 71 68 65 62 57 53 48 43 41 40 37 35 31 30 29 27 25
Wind_Direction
283 283 284 285 286 287 288 289 290 291 292 291 291 290 289 288 287 286 285 284 283 282 281 280 279 278 277 276 275 274 273 272 271 270 269 269 268 267 267 266 266 265 264
282 283 284 285 286 287 289 290 291 292 292 292 291 290 289 288 288 287 286 285 284 283 282 280 280 279 278 277 276 275 274 273 272 271 270 270 269 268 267 267 266 266 265
282 283 284 285 286 288 289 291 292 292 292 292 292 291 291 290 289 289 288 286 285 283 282 281 280 280 279 278 277 276 275 274 273 273 272 271 270 269 268 267 267 266 265
282 283 284 286 287 289 291 292 292 293 293 293 292 291 291 291 290 290 289 287 286 284 283 282 281 280 280 279 278 277 276 275 274 274 273 272 271 270 269 268 267 267 266
282 283 284 286 288 290 291 292 293 294 294 294 293 292 292 292 292 291 289 288 287 286 285 284 283 282 281 280 279 278 278 276 275 275 274 273 272 271 270 270 269 268 267
282 283 285 287 289 290 291 293 294 294 294 294 294 294 294 294 294 292 291 290 289 287 286 285 284 283 282 281 280 279 278 277 277 276 275 274 273 272 271 271 270 269 268
282 283 285 287 289 290 292 293 294 294 294 294 294 295 295 295 294 293 292 291 290 289 287 286 285 284 283 282 281 280 279 278 277 277 276 275 274 273 272 272 271 270 269
281 283 286 287 289 291 292 293 294 295 295 295 294 295 295 295 295 294 293 292 291 290 289 288 286 286 285 284 283 282 281 280 279 277 277 276 275 275 274 273 272 271 270
281 283 286 287 289 290 292 294 295 295 295 295 295 295 294 294 294 293 293 292 292 291 290 289 288 287 286 285 284 283 282 281 280 279 278 277 277 276 275 274 273 272 271
282 284 286 288 289 291 292 293 294 295 295 295 295 295 295 294 293 292 292 292 292 291 290 289 289 288 287 286 285 284 283 282 281 280 280 279 278 277 276 275 274 273 272
282 284 286 289 291 292 293 294 294 295 295 295 295 295 295 295 294 293 292 291 291 291 290 290 289 288 288 287 286 286 284 283 282 281 281 280 279 278 277 276 275 274 273
282 285 287 289 291 292 294 294 295 295 296 296 296 296 296 295 295 294 293 292 292 291 290 290 289 289 288 288 287 286 285 284 283 283 282 281 280 279 278 277 276 275 274
284 286 288 289 291 293 294 294 295 296 296 296 296 296 296 296 296 295 295 294 293 292 291 290 290 289 289 288 288 287 287 286 285 284 283 282 281 280 279 278 277 275 274
285 287 288 290 292 293 294 294 295 296 296 296 296 296 296 296 297 296 296 295 294 294 293 292 291 291 290 290 289 289 288 288 287 286 285 284 282 281 280 279 277 276 275
286 287 289 291 292 293 294 295 296 297 297 297 297 297 298 298 298 298 297 297 296 296 295 294 293 293 292 292 291 291 290 289 288 287 286 284 283 282 280 279 277 276 275
285 288 290 291 292 293 295 295 296 297 298 298 298 299 299 299 299 299 299 298 298 298 297 296 295 295 294 294 294 293 292 291 290 288 287 286 284 283 281 280 278 277 275
287 289 290 291 292 294 295 296 297 298 298 299 299 300 300 300 300 299 299 299 299 299 298 298 297 297 297 296 296 295 294 293 292 291 290 289 287 285 284 282 280 278 276
287 289 290 291 293 295 296 297 298 298 299 300 300 301 300 300 300 300 300 300 300 300 299 299 299 299 299 298 297 297 296 296 295 294 293 291 290 288 286 284 282 280 278
288 290 291 293 294 295 296 297 298 298 300 300 301 301 300 300 300 300 300 300 300 301 301 301 301 301 300 300 299 299 298 298 297 295 294 292 291 289 287 285 283 281 279
289 290 292 293 294 295 296 297 298 299 300 300 301 301 301 301 301 301 301 301 301 301 301 302 302 302 302 301 301 300 300 299 298 296 294 293 291 289 287 285 284 282 280
289 290 292 293 294 295 296 297 299 300 300 300 300 301 301 301 301 301 301 302 302 302 302 303 303 303 303 302 302 302 302 301 300 298 295 293 291 290 288 286 285 283 281
289 290 292 293 294 295 296 297 299 299 300 300 301 301 301 302 302 302 302 303 303 303 304 304 304 305 304 304 304 304 303 302 301 299 297 295 293 291 289 287 285 283 281
289 291 292 293 294 295 296 297 298 299 300 301 301 302 302 302 302 302 303 303 304 304 304 305 306 306 306 305 305 305 304 304 303 300 298 296 294 292 290 288 285 283 281
289 291 292 293 294 295 296 297 298 299 300 301 302 302 302 303 303 303 303 304 304 305 305 305 307 307 307 306 306 305 305 304 303 301 299 297 294 293 291 288 285 283 281
290 291 292 293 294 295 296 297 298 300 300 301 302 302 303 303 304 303 304 305 306 306 306 306 307 307 307 306 305 305 305 304 303 301 298 298 296 293 291 288 285 283 281
289 291 292 293 294 295 297 298 299 300 301 301 302 303 304 304 304 305 305 306 306 306 307 308 308 307 306 306 305 305 304 304 303 301 298 297 296 293 289 286 284 281 280
Height
5834 5833 5831 5830 5828 5826 5824 5822 5820 5818 5816 5814 5811 5809 5807 5804 5802 5800 5798 5797 5795 5793 5791 5789 5787 5786 5784 5783 5782 5781 5779 5778 5778 5777 5776 5776 5775 5775 5775 5775 5775 5775 5775
5829 5827 5826 5824 5822 5820 5818 5816 5814 5812 5809 5807 5804 5802 5799 5797 5795 5793 5791 5789 5787 5785 5783 5781 5779 5777 5776 5774 5773 5772 5770 5769 5768 5767 5766 5766 5765 5765 5764 5764 5764 5764 5764
5823 5821 5820 5818 5816 5814 5812 5810 5807 5805 5802 5800 5797 5794 5792 5790 5787 5785 5783 5781 5779 5777 5774 5772 5770 5769 5767 5765 5764 5762 5761 5759 5758 5757 5756 5755 5754 5754 5753 5753 5753 5752 5752
5817 5815 5813 5812 5810 5807 5805 5803 5800 5798 5795 5792 5789 5787 5784 5782 5779 5777 5774 5772 5770 5768 5766 5764 5762 5760 5758 5756 5754 5752 5751 5749 5748 5747 5745 5744 5744 5743 5742 5741 5741 5741 5741
5810 5808 5807 5805 5803 5800 5798 5796 5793 5790 5788 5785 5782 5779 5776 5773 5771 5768 5765 5763 5760 5758 5756 5754 5752 5750 5748 5746 5744 5742 5740 5739 5737 5736 5734 5733 5732 5731 5730 5730 5729 5728 5728
5803 5802 5800 5798 5796 5793 5791 5788 5786 5783 5780 5777 5774 5771 5768 5765 5762 5759 5756 5753 5751 5748 5746 5744 5742 5740 5737 5735 5733 5731 5729 5728 5726 5724 5723 5721 5720 5719 5718 5717 5716 5716 5715
5796 5795 5793 5791 5789 5786 5784 5781 5778 5775 5772 5769 5766 5763 5759 5756 5753 5749 5746 5743 5741 5738 5736 5733 5731 5728 5726 5724 5722 5720 5718 5716 5714 5712 5710 5709 5707 5706 5705 5704 5703 5702 5701
5789 5787 5786 5784 5781 5779 5776 5773 5770 5767 5764 5761 5758 5754 5751 5748 5744 5740 5736 5733 5730 5727 5725 5722 5719 5717 5714 5712 5710 5707 5705 5703 5701 5699 5697 5695 5694 5692 5691 5689 5688 5687 5686
5782 5780 5778 5776 5773 5771 5768 5765 5762 5759 5756 5752 5749 5746 5742 5739 5736 5732 5727 5723 5719 5716 5713 5710 5707 5705 5702 5700 5697 5695 5692 5689 5687 5685 5683 5681 5679 5677 5675 5674 5672 5671 5671
5774 5772 5770 5767 5765 5762 5760 5757 5753 5750 5747 5744 5740 5736 5733 5729 5726 5723 5719 5714 5709 5705 5702 5698 5695 5692 5689 5686 5684 5681 5678 5675 5672 5670 5667 5665 5663 5661 5659 5657 5656 5654 5653
5765 5764 5761 5759 5757 5754 5751 5748 5744 5741 5737 5734 5730 5727 5723 5719 5715 5713 5710 5705 5700 5695 5691 5686 5682 5679 5676 5672 5669 5666 5663 5660 5657 5654 5652 5649 5646 5644 5641 5639 5638 5636 5635
5757 5755 5753 5750 5748 5745 5741 5738 5735 5731 5728 5724 5720 5716 5712 5709 5705 5701 5698 5694 5690 5685 5680 5675 5670 5666 5663 5659 5655 5652 5648 5645 5641 5638 5635 5632 5629 5626 5623 5621 5619 5617 5616
5749 5746 5744 5741 5738 5735 5732 5729 5725 5721 5717 5713 5709 5705 5701 5697 5693 5689 5686 5682 5679 5674 5669 5663 5658 5653 5649 5645 5641 5637 5633 5629 5625 5621 5617 5614 5610 5607 5604 5602 5599 5597 5595
5740 5737 5735 5732 5729 5726 5722 5718 5715 5711 5707 5703 5698 5694 5690 5685 5681 5677 5673 5669 5666 5662 5657 5651 5645 5639 5635 5631 5626 5622 5618 5613 5608 5603 5599 5595 5591 5587 5584 5581 5578 5576 5574
5730 5728 5725 5722 5719 5715 5712 5708 5704 5700 5696 5692 5687 5683 5678 5673 5669 5664 5659 5655 5651 5648 5645 5638 5632 5626 5621 5616 5611 5605 5601 5596 5591 5585 5580 5575 5570 5566 5563 5559 5556 5554 5552
5721 5718 5715 5712 5708 5705 5701 5697 5693 5689 5685 5680 5675 5671 5666 5661 5656 5651 5646 5641 5636 5632 5629 5624 5618 5612 5606 5600 5594 5588 5583 5577 5571 5565 5559 5554 5549 5544 5540 5536 5533 5530 5528
5711 5708 5705 5701 5698 5694 5690 5686 5682 5677 5673 5668 5663 5659 5653 5648 5643 5638 5633 5627 5622 5617 5613 5609 5602 5596 5589 5583 5576 5569 5562 5556 5550 5544 5537 5531 5525 5520 5515 5511 5507 5504 5501
5701 5698 5694 5691 5687 5683 5679 5675 5671 5666 5661 5656 5651 5646 5641 5635 5630 5625 5619 5613 5608 5602 5596 5592 5587 5579 5572 5564 5557 5550 5542 5535 5527 5520 5512 5505 5499 5493 5488 5483 5479 5476 5473
5690 5687 5684 5680 5676 5672 5668 5664 5659 5654 5649 5644 5639 5634 5628 5622 5617 5611 5605 5599 5593 5587 5580 5575 5569 5562 5554 5545 5537 5530 5521 5513 5505 5496 5488 5480 5472 5466 5460 5455 5451 5448 5445
5680 5676 5673 5669 5665 5661 5656 5652 5647 5642 5637 5632 5626 5621 5615 5609 5603 5597 5591 5585 5578 5571 5564 5557 5551 5543 5535 5525 5516 5508 5500 5491 5481 5471 5463 5454 5447 5441 5435 5430 5426 5422 5420
5669 5665 5662 5658 5653 5649 5645 5640 5635 5630 5625 5619 5614 5608 5602 5596 5589 5583 5576 5570 5562 5555 5547 5539 5532 5524 5515 5504 5494 5484 5476 5468 5459 5446 5438 5431 5424 5418 5413 5408 5404 5400 5398
5657 5654 5650 5646 5642 5637 5632 5628 5623 5617 5612 5606 5601 5595 5589 5582 5576 5569 5561 5554 5545 5537 5528 5520 5512 5502 5493 5482 5472 5462 5452 5444 5438 5427 5416 5411 5403 5398 5393 5389 5385 5382 5380
5646 5642 5638 5634 5630 5625 5620 5615 5610 5604 5599 5593 5587 5581 5574 5568 5560 5553 5546 5538 5529 5518 5508 5499 5491 5481 5471 5461 5451 5442 5432 5422 5415 5406 5398 5394 5387 5382 5377 5373 5370 5367 5365
5634 5630 5626 5622 5617 5612 5607 5602 5597 5591 5586 5579 5573 5566 5560 5552 5544 5536 5529 5521 5512 5502 5491 5480 5471 5461 5450 5439 5429 5420 5412 5405 5399 5390 5381 5377 5373 5368 5364 5360 5357 5355 5353
5622 5618 5614 5609 5605 5600 5594 5589 5583 5578 5572 5566 5559 5552 5544 5536 5528 5519 5511 5503 5495 5484 5473 5462 5452 5441 5431 5420 5410 5402 5395 5388 5383 5377 5369 5364 5360 5356 5353 5349 5346 5345 5344
5610 5606 5601 5597 5592 5587 5581 5575 5569 5564 5558 5552 5545 5537 5529 5520 5511 5500 5491 5483 5474 5465 5455 5446 5435 5424 5413 5404 5394 5386 5378 5373 5368 5364 5358 5353 5349 5345 5344 5341 5338 5337 5336